Regional Weather Roundup
Issued by NWS

Home | Current Version | Previous Version | Text Only | Print | Product List | Glossary On
Versions: 1 2 3 4 5 6 7 8 9 10 11 12 13 14 15 16 17 18 19 20 21 22 23 24 25 26 27 28 29 30 31 32 33 34 35 36 37 38 39 40 41 42 43 44 45 46 47 48 49 50
000
ASUS42 KTBW 131516
RWRFL
FLORIDA REGIONAL WEATHER ROUNDUP
NATIONAL WEATHER SERVICE TAMPA BAY RUSKIN FL
1000 AM EST SAT FEB 13 2016

NOTE: "FAIR" INDICATES FEW OR NO CLOUDS BELOW 12,000 FEET WITH NO
SIGNIFICANT WEATHER AND/OR OBSTRUCTIONS TO VISIBILITY.


FLZ001>010-012>015-112-114-115-131600-
PANHANDLE FLORIDA

CITY           SKY/WX    TMP DP  RH WIND       PRES   REMARKS
PENSACOLA      SUNNY     48  27  44 N13G21    30.40R WCI  43
PENSACOLA NAS  SUNNY     50  26  39 N16       30.40R WCI  44
MILTON NAS     SUNNY     47  26  44 N10G17    30.41  WCI  42
CRESTVIEW      SUNNY     48  24  39 N15G23    30.41R WCI  42
DUKE FIELD     FAIR      48  24  38 NE18      30.38R WCI  41
VALPARAISO     SUNNY     49  26  40 N16       30.37R WCI  43
MARY ESTHER    SUNNY     50  24  36 N17G28    30.38R WCI  44
PANAMA CITY    FAIR      49  25  39 N18G26    30.37R WCI  42
TYNDALL AFB    SUNNY     51  30  44 N15       30.37R
APALACHICOLA   SUNNY     54  31  41 NE15      30.34R

STATION/POSITION SKY/WX   TEMP    WIND        PRES    WAVE   SWELL
                          AIR SEA DIR/SP/G            HT/PER HT/PER
                          (F)     (DEG/KT/KT) (MB)    (FT/S) (FT/S)
30.1N   87.6W              50 66   20/ 17/ 19 1029.0R   3/ 4
28.8N   86.0W              58 68   20/ 19/ 25 1027.3R   6/ 6
PANAMA CITY BEAC           47 60   20/ 12/ 16 1028.2R
CAPE SAN BLAS    NOT AVBL
TOWER C          NOT AVBL
28.5N   84.5W              60 66   10/ 21/ 25 1026.1R   6/ 6

$$
FLZ011-016>038-118-127-128-134-139-239-131600-
NORTH FLORIDA

CITY           SKY/WX    TMP DP  RH WIND       PRES   REMARKS
MARIANNA       SUNNY     48  21  34 N16G24    30.38R WCI  42
TALLAHASSEE    SUNNY     51  25  36 N13       30.36R
PERRY          SUNNY     53  31  41 NW13      30.34R
LIVE OAK         N/A     54  34  47 NW7       30.34R
CROSS CITY       N/A     56  33  42 N14       30.31R
LAKE CITY      FAIR      52  32  46 NW9G17    30.31R
GAINESVILLE    SUNNY     55  37  50 N10       30.30R
WILLISTON      FAIR      57  41  54 N10G17    30.30S
KEYSTONE HEIGH FAIR      54  32  43 N8        30.29R
PALATKA        FAIR      55  39  54 N9G16     30.29R
MAYPORT NAS    SUNNY     54  32  43 N10       30.28R
JACKSONVILLE   SUNNY     52  27  38 NW14      30.29R
JAX NAS        SUNNY     55  26  32 NW16      30.29R
JAX CRAIG      SUNNY     54  31  41 NW14      30.28R
JAX CECIL      SUNNY     54  28  37 N14G21    30.30R
FERNANDINA BEA FAIR      55  32  41 NW13      30.27R
ST AUGUSTINE   SUNNY     56  34  43 N10       30.29R
PALM COAST     SUNNY     57  45  62 N13       30.26R

STATION/POSITION SKY/WX   TEMP    WIND        PRES    WAVE   SWELL
                          AIR SEA DIR/SP/G            HT/PER HT/PER
                          (F)     (DEG/KT/KT) (MB)    (FT/S) (FT/S)
SHELL POINT                49     350/ 10/ 15 1025.9
KEATON BEACH               52      10/  9/ 11 1026.6R
CEDAR KEY                  56      10/  7/ 10 1026.3R
FERNANDINA                 51 56  310/  5/ 10 1024.9R
30.7N   81.3W                 56                N/A     3/ 4
MAYPORT                    51 56  330/ 13/ 16 1024.9R
31.4N   80.9W              45 53  350/ 16/ 17 1025.4R   3/ 5
ST AUGUSTINE               53 57  360/ 15/ 18 1025.9R

$$
FLZ040-043>046-052-053-057-058-063-144-131600-
INTERIOR CENTRAL FLORIDA

CITY           SKY/WX    TMP DP  RH WIND       PRES   REMARKS
OCALA          SUNNY     57  39  51 N16       30.29R
THE VILLAGES     N/A     61  45  55 NW7       30.19R
LEESBURG       SUNNY     61  42  49 N12       30.29R
SANFORD        SUNNY     61  48  62 N10       30.26R
ORLANDO EXEC   SUNNY     63  47  55 N12       30.26R
ORLANDO INTL   SUNNY     63  48  58 N10       30.26R
KISSIMMEE      SUNNY     64  50  59 N8        30.26R
WINTER HAVEN   SUNNY     62  52  69 N9        30.27R
LAKELAND       SUNNY     61  50  67 N10       30.27R
BARTOW         SUNNY     61  48  63 N7        30.27R
OKEECHOBEE     MOSUNNY   63  57  82 NW9       30.26R

$$
FLZ041-047-054-059-064-141-147-131600-
EAST CENTRAL FLORIDA

CITY           SKY/WX    TMP DP  RH WIND       PRES   REMARKS
ORMOND BEACH   SUNNY     57  46  67 N12       30.26R
DAYTONA BEACH  MOSUNNY   60  41  49 N10       30.27R
DELAND           N/A     59  41  51 N10       30.28R
NEW SMYRNA BEA SUNNY     59  50  72 N16G25    30.25R
JFK SPACE CTR  MOSUNNY   62  53  71 N9G17     30.24R
TITUSVILLE     SUNNY     63  50  63 N18       30.25R
CAPE CANAVERAL SUNNY     62  53  73 NW16      30.24R
PATRICK AFB    SUNNY     63  53  71 NW10      30.25R
MELBOURNE      SUNNY     65  52  62 N9        30.25R
VERO BEACH     SUNNY     65  53  65 NW12      30.25R
FT PIERCE      SUNNY     63  56  78 NW8       30.25R
STUART         MOSUNNY   68  54  60 NW9       30.26R

STATION/POSITION SKY/WX   TEMP    WIND        PRES    WAVE   SWELL
                          AIR SEA DIR/SP/G            HT/PER HT/PER
                          (F)     (DEG/KT/KT) (MB)    (FT/S) (FT/S)
28.5N   80.2W              63 71  330/ 16/ 17 1023.4R
28.9N   78.5W              69 72              1021.5R
TRIDENT PIER               60 62  320/  7/ 11 1023.6R
28.4N   80.5W                 63                N/A     1/10
27.5N   80.2W                 71                N/A     2/ 3

$$
FLZ050-056-061-142-242-148-248-149-249-151-251-155-255-
160-260-131600-
WEST CENTRAL FLORIDA

CITY           SKY/WX    TMP DP  RH WIND       PRES   REMARKS
CRYSTAL RIVER  FAIR      59  37  44 N10G16    30.30R
INVERNESS      FAIR      59  43  55 N12       30.30R
BROOKSVILLE    SUNNY     62  45  53 N10       30.28S
ZEPHYRHILLS    FAIR      62  50  64 N9        30.28R
CLEARWATER AIR FAIR      61  46  59 N8        30.28R
ST PETE CLEARW SUNNY     64  49  57 N9        30.28R
TAMPA INTL     SUNNY     64  47  53 N15       30.28R
TAMPA EXEC     SUNNY     66  50  55 N8        30.28R
PLANT CITY     SUNNY     64  52  63 N9        30.29R
MACDILL AFB    SUNNY     66  56  71 N10       30.27R
PETER O KNIGHT SUNNY     68  50  52 N8        30.28R
ST PETERSBURG  SUNNY     64  47  53 NE15      30.26R
SARASOTA       SUNNY     66  51  58 N10       30.26R
VENICE         FAIR      66  63  88 NW8       30.28R

STATION/POSITION SKY/WX   TEMP    WIND        PRES    WAVE   SWELL
                          AIR SEA DIR/SP/G            HT/PER HT/PER
                          (F)     (DEG/KT/KT) (MB)    (FT/S) (FT/S)
CEDAR KEY                  56      10/  7/ 10 1026.3R
28.5N   84.5W              60 66   10/ 21/ 25 1026.1R   6/ 6
27.3N   84.2W                 70                N/A     5/ 6
CLEARWATER BEACH           59 58  360/ 13/ 16 1025.2R
MIDDLE TAMPA BAY           61      20/ 15/ 17 1024.9R
VENICE                     63 62  310/  8/  8 1024.6R

$$
FLZ066-069-070-075>078-162-262-165-265-131600-
SOUTHWEST FLORIDA AND KEYS

CITY           SKY/WX    TMP DP  RH WIND       PRES   REMARKS
PUNTA GORDA    MOSUNNY   66  65  96 N13       30.28R
FT MYERS       MOSUNNY   68  59  73 NW12      30.26R
SOUTHWEST INTL MOSUNNY   69  58  67 NW12G17   30.27R
NAPLES         MOSUNNY   68  59  73 NW8       30.26S
MARCO ISLAND   MOSUNNY   68  55  64 NW6       30.26S
MARATHON       SUNNY     67  58  72 N12       30.26R
KEY WEST NAS   SUNNY     69  58  67 N12       30.27R
KEY WEST INTL  SUNNY     69  60  73 N12       30.27R

STATION/POSITION SKY/WX   TEMP    WIND        PRES    WAVE   SWELL
                          AIR SEA DIR/SP/G            HT/PER HT/PER
                          (F)     (DEG/KT/KT) (MB)    (FT/S) (FT/S)
VENICE                     63 62  310/  8/  8 1024.6R
NAPLES                        64              1024.5R
26.0N   85.6W              72 79  360/ 14/ 17 1025.8R   3/ 4   2/ 7
DRY TORTUGAS     NOT AVBL
SAND KEY                   65      30/ 16/ 17 1025.3R
LONG KEY                   63 64   10/  9/ 10 1025.5R
MOLASSES REEF              65 73  360/ 15/ 17 1024.1R

$$
FLZ067-068-071>074-168-172>174-131600-
SOUTHEAST FLORIDA

CITY           SKY/WX    TMP DP  RH WIND       PRES   REMARKS
W PALM BEACH   MOSUNNY   67  58  72 NW15      30.25S
BOCA RATON     SUNNY     66  57  72 NW13      30.25R
FT LAUDER-EXEC MOSUNNY   68  56  65 NW7       30.25S
FT LAUDERDALE  MOSUNNY   69  58  67 NW9       30.25R
POMPANO BEACH  SUNNY     68  59  73 NW14      30.25S
PEMBROKE PINES SUNNY     70  58  65 NW12      30.27R
OPA LOCKA      SUNNY     70  58  65 NW10      30.27R
MIAMI          MOSUNNY   68  57  68 NW10      30.27R
WEST KENDALL   SUNNY     68  59  73 N14G21    30.27R
HOMESTEAD      SUNNY     68  57  69 NW14      30.26R

STATION/POSITION SKY/WX   TEMP    WIND        PRES    WAVE   SWELL
                          AIR SEA DIR/SP/G            HT/PER HT/PER
                          (F)     (DEG/KT/KT) (C1F1M1C2F2M2C3F3C4F4M3C5F5M4C6F6M5C7F7M6C8!


USA.gov is the U.S. government's official web portal to all federal, state and local government web resources and services.